Showing default

VSP RF A1, 59135

Orbit data source: Space-Track

VSP RF A1, 59135 is a payload satellite owned by Aerospacelab (BE) in SSO that was launched on Mon, 04 Mar 2024 UTC via an FALCON 9 launch vehicle from the Air Force Western Test Range (AFWTR). Payload-class satellites include a variety of spacecraft equipped with specific instruments for various scientific and technological missions. These include communications satellites like Starlink; space stations such as the ISS; scientific satellites like the Hubble; Earth observation satellites from companies like Planet Labs, Umbra, and HawkEye 360; GPS; miniature CubeSats for education and research; and military/defense satellites.

Loading next visibility...
Identifier
59135, 2024-043AP
Orbit
SSO
Country
Flag of BEBE / BEL
Related business
Manufacturer
Aerospacelab
Mission
Operational Commercial Sigint
Bus & Motor
AEROSP, Unknown motor
Mass
~200 kg wet, ~200 kg dry
Launch date (UTC)
2024-03-04 (2 years ago)
Launch vehicle
FALCON 9
Launch site
Air Force Western Test Range (AFWTR)
Object type
Payload
Rocket body
Debris
Shape & HBR
Box + 2 Pan, 1.0 m
Radar Cross Section
0.963 m², Large (>1 m²)

Expand to show TLE details & history
Last TLE update: 12 hours ago

TLE from 12 hours ago
0 VSP RF A1
1 59135U 24043AP  26175.63560556  .00003073  00000-0  12340-3 0  9999
2 59135  97.5431 312.0841 0006292 202.0407 158.0561 15.25725873128122
Epoch: 2026-06-24T15:15Z
TLE epoch observation values (Epoch: 2026-06-24T15:15:16.320Z)
Latitude
-0.00004°
Longitude
170.47612°
Altitude
495.71 km
Speed
7.615 km/s
True Right ascension
20h 48m 20s
True Declination
0° 00' 00"
Sunlit
Object was in full shadow at epoch
Visualization orbit readout
Latitude
Unknown
Longitude
Unknown
Altitude
Unknown
Speed
Unknown
Apparent Right ascension
Unknown
Apparent Declination
Unknown
Sunlit
N/A
Visualization observer readout
Local Sidereal Time
14:53:51
Azimuth
Unknown
Elevation
Unknown
Doppler factor
Unknown
Orbital elements
Apogee altitude
489.889 km
Perigee altitude
481.252 km
Semi-major axis
6,863.708 km
Eccentricity
0.00063
Inclination
97.5431°
RAAN
312.0841°
Arg. of periapsis
202.0407°
True anomaly
158.08302°
Mean anomaly
158.0561°
Eccentric anomaly
158.06956°
Mean motion
3.81685 °/min
Orbital period
94.32 mins
BSTAR
0.0001234
Loading maneuver chart data...
Computing Atmospheric mass density...
Loading historical data...
Loading historical data...
Loading historical data...
Loading historical data...
Loading historical data...
Loading historical data...
Loading historical data...

Documentation

Showing up to 5 results
|